Location: Saint+Peter+Port
(49.4500°N, 2.5330°W)
Time: 21:56:36
(UTC+01:00)

BlueWalker 3 - Pass Details

Date: 07 March 2024
Orbit: 485 x 495 km, 53.2° (Epoch: 21 April)

Event Time Altitude Azimuth Distance (km) Brightness Sun altitude
Rises 18:44:36 0° 289° (WNW) 2,564 7.2 -7.5°
Reaches altitude 10° 18:47:10 10° 273° (W) 1,676 6.4 -7.9°
Maximum altitude 18:50:00 20° 224° (SW) 1,162 4.4 -8.4°
Drops below altitude 10° 18:52:50 10° 175° (S) 1,663 4.5 -8.9°
Sets 18:55:19 0° 159° (SSE) 2,521 5.2 -9.3°
